Weather History for Gunnison, CO

Change the Weather History Date:

Thursday, November 18, 2010

  Actual Average Record
Temperature  
Mean Temperature 24 °F -  
Max Temperature 42 °F 38 °F 59 °F (2007)
Min Temperature 6 °F 12 °F -5 °F (2000)
Degree Days  
Heating Degree Days 41    
Moisture  
Dew Point 10 °F    
Average Humidity 65    
Maximum Humidity 86    
Minimum Humidity 31    
Precipitation  
Precipitation 0.00 in - - ()
Sea Level Pressure  
Sea Level Pressure 30.39 in    
Wind  
Wind Speed 0 mph (SW)    
Max Wind Speed 4 mph    
Max Gust Speed -    
Visibility 10 miles    
Events      
Averages and records for this station are not official NWS values.
T = Trace of Precipitation, MM = Missing Value Source: NWS Daily Summary

Daily Weather History Graph

Daily Weather History Graph

Search for Another Location

Airport:

Trip Planner

Search our weather history database for the weather conditions in past years. The results will help you decide how hot, cold, wet, or windy it might be!

Date:

Astronomy

Nov. 18, 2010 Rise Set
Actual Time 6:52 AM MST 4:52 PM MST
Civil Twilight 6:24 AM MST 5:21 PM MST
Nautical Twilight 5:52 AM MST 5:53 PM MST
Astronomical Twilight 5:20 AM MST 6:24 PM MST
Moon 2:52 PM MST (11/18) 3:54 AM MST (11/18)
Length of Visible Light 10h 56m
Length of Day
9h 59m
Waxing Gibbous, 91% of the Moon is Illuminated
Nov 18
Waxing Gibbous
Nov 21
Full
Nov 28
Last Quarter
Dec 5
New
Dec 13
First Quarter

Hourly Weather History & Observations

Time (MST) Temp. Windchill Dew Point Humidity Pressure Visibility Wind Dir Wind Speed Gust Speed Precip Events Conditions
12:15 AM 14.0 °F - 10.4 °F 86% 30.43 in 10.0 mi Calm Calm - N/A   Clear
12:35 AM 15.8 °F - 10.4 °F 79% 30.43 in 10.0 mi Calm Calm - N/A   Clear
12:55 AM 15.8 °F - 10.4 °F 79% 30.43 in 10.0 mi Calm Calm - N/A   Clear
1:15 AM 12.2 °F - 6.8 °F 79% 30.43 in 10.0 mi Calm Calm - N/A   Clear
1:35 AM 12.2 °F - 8.6 °F 85% 30.43 in 10.0 mi Calm Calm - N/A   Clear
1:55 AM 14.0 °F - 10.4 °F 86% 30.44 in 10.0 mi Calm Calm - N/A   Clear
2:15 AM 14.0 °F - 8.6 °F 79% 30.44 in 10.0 mi Calm Calm - N/A   Clear
2:35 AM 12.2 °F - 8.6 °F 85% 30.45 in 10.0 mi Calm Calm - N/A   Clear
2:55 AM 12.2 °F - 6.8 °F 79% 30.45 in 10.0 mi Calm Calm - N/A   Clear
3:15 AM 10.4 °F - 5.0 °F 79% 30.45 in 10.0 mi Calm Calm - N/A   Clear
3:35 AM 10.4 °F - 6.8 °F 85% 30.45 in 10.0 mi Calm Calm - N/A   Clear
3:55 AM 10.4 °F - 6.8 °F 85% 30.44 in 10.0 mi Calm Calm - N/A   Clear
4:15 AM 10.4 °F - 6.8 °F 85% 30.44 in 10.0 mi Calm Calm - N/A   Clear
4:35 AM 10.4 °F - 6.8 °F 85% 30.44 in 10.0 mi Calm Calm - N/A   Clear
4:55 AM 10.4 °F - 5.0 °F 79% 30.44 in 10.0 mi Calm Calm - N/A   Clear
5:15 AM 10.4 °F - 6.8 °F 85% 30.44 in 10.0 mi Calm Calm - N/A   Clear
5:35 AM 8.6 °F - 1.4 °F 73% 30.45 in 10.0 mi Calm Calm - N/A   Clear
5:55 AM 8.6 °F - 5.0 °F 85% 30.45 in 10.0 mi Calm Calm - N/A   Clear
6:15 AM 8.6 °F - 3.2 °F 79% 30.45 in 10.0 mi Calm Calm - N/A   Clear
6:35 AM 8.6 °F - 3.2 °F 79% 30.45 in 10.0 mi Calm Calm - N/A   Clear
6:55 AM 6.8 °F - 3.2 °F 85% 30.46 in 10.0 mi Calm Calm - N/A   Clear
7:15 AM 6.8 °F - 3.2 °F 85% 30.46 in 10.0 mi Calm Calm - N/A   Clear
7:35 AM 8.6 °F - 5.0 °F 85% 30.46 in 10.0 mi Calm Calm - N/A   Clear
7:55 AM 10.4 °F - 5.0 °F 79% 30.47 in 10.0 mi Calm Calm - N/A   Clear
8:15 AM 12.2 °F - 6.8 °F 79% 30.47 in 10.0 mi Calm Calm - N/A   Clear
8:35 AM 12.2 °F - 8.6 °F 85% 30.48 in 10.0 mi Calm Calm - N/A   Clear
8:55 AM 15.8 °F - 6.8 °F 68% 30.48 in 10.0 mi Calm Calm - N/A   Clear
9:15 AM 17.6 °F - 8.6 °F 68% 30.47 in 10.0 mi Calm Calm - N/A   Clear
9:35 AM 19.4 °F - 12.2 °F 74% 30.46 in 10.0 mi Calm Calm - N/A   Clear
9:55 AM 21.2 °F - 12.2 °F 68% 30.45 in 10.0 mi Calm Calm - N/A   Clear
10:15 AM 23.0 °F - 10.4 °F 59% 30.45 in 10.0 mi Calm Calm - N/A   Clear
10:35 AM 24.8 °F - 12.2 °F 59% 30.44 in 10.0 mi Calm Calm - N/A   Clear
10:55 AM 28.4 °F - 14.0 °F 55% 30.42 in 10.0 mi Calm Calm - N/A   Clear
11:15 AM 28.4 °F - 14.0 °F 55% 30.40 in 10.0 mi Calm Calm - N/A   Clear
11:35 AM 28.4 °F - 14.0 °F 55% 30.38 in 10.0 mi Calm Calm - N/A   Clear
11:55 AM 32.0 °F - 17.6 °F 55% 30.37 in 10.0 mi Calm Calm - N/A   Clear
12:15 PM 33.8 °F - 14.0 °F 44% 30.35 in 10.0 mi Calm Calm - N/A   Clear
12:35 PM 35.6 °F - 14.0 °F 41% 30.33 in 10.0 mi Calm Calm - N/A   Clear
12:55 PM 35.6 °F - 15.8 °F 44% 30.32 in 10.0 mi Calm Calm - N/A   Clear
1:15 PM 37.4 °F - 15.8 °F 41% 30.30 in 10.0 mi Calm Calm - N/A   Clear
1:35 PM 37.4 °F - 12.2 °F 36% 30.29 in 10.0 mi Calm Calm - N/A   Clear
1:55 PM 37.4 °F - 15.8 °F 41% 30.28 in 10.0 mi Calm Calm - N/A   Clear
2:15 PM 39.2 °F - 15.8 °F 39% 30.26 in 10.0 mi Calm Calm - N/A   Clear
2:35 PM 39.2 °F - 17.6 °F 42% 30.26 in 10.0 mi Calm Calm - N/A   Clear
2:55 PM 41.0 °F - 15.8 °F 36% 30.25 in 10.0 mi Calm Calm - N/A   Clear
3:15 PM 39.2 °F 37.0 °F 17.6 °F 42% 30.24 in 10.0 mi SE 3.5 mph - N/A   Clear
3:35 PM 41.0 °F - 15.8 °F 36% 30.24 in 10.0 mi Calm Calm - N/A   Clear
3:55 PM 41.0 °F - 15.8 °F 36% 30.23 in 10.0 mi Calm Calm - N/A   Clear
4:15 PM 42.8 °F - 14.0 °F 31% 30.23 in 10.0 mi Calm Calm - N/A   Clear
4:35 PM 39.2 °F - 14.0 °F 36% 30.22 in 10.0 mi Calm Calm - N/A   Clear
4:55 PM 35.6 °F - 15.8 °F 44% 30.22 in 10.0 mi Calm Calm - N/A   Clear
5:15 PM 35.6 °F 32.8 °F 15.8 °F 44% 30.22 in 10.0 mi NW 3.5 mph - N/A   Clear
5:35 PM 33.8 °F 30.8 °F 15.8 °F 48% 30.22 in 10.0 mi NW 3.5 mph - N/A   Clear
5:55 PM 30.2 °F 23.4 °F 15.8 °F 55% 30.23 in 10.0 mi NNW 6.9 mph - N/A   Clear
6:15 PM 30.2 °F 26.7 °F 15.8 °F 55% 30.23 in 10.0 mi North 3.5 mph - N/A   Clear
6:35 PM 28.4 °F 24.6 °F 17.6 °F 64% 30.23 in 10.0 mi North 3.5 mph - N/A   Clear
6:55 PM 26.6 °F - 15.8 °F 64% 30.23 in 10.0 mi Calm Calm - N/A   Clear
7:15 PM 24.8 °F - 15.8 °F 69% 30.23 in 10.0 mi Calm Calm - N/A   Clear
7:35 PM 24.8 °F - 15.8 °F 69% 30.23 in 10.0 mi Calm Calm - N/A   Clear
7:55 PM 26.6 °F - 15.8 °F 64% 30.23 in 10.0 mi Calm Calm - N/A   Clear
8:15 PM 21.2 °F - 14.0 °F 74% 30.23 in 10.0 mi Calm Calm - N/A   Clear
8:35 PM 21.2 °F - 15.8 °F 80% 30.23 in 10.0 mi Calm Calm - N/A   Clear
8:55 PM 21.2 °F - 15.8 °F 80% 30.23 in 10.0 mi Calm Calm - N/A   Clear
9:15 PM 21.2 °F - 15.8 °F 80% 30.24 in 10.0 mi Calm Calm - N/A   Clear
9:35 PM 21.2 °F 16.4 °F 15.8 °F 80% 30.24 in 10.0 mi ENE 3.5 mph - N/A   Clear
9:55 PM 23.0 °F 18.4 °F 15.8 °F 74% 30.23 in 10.0 mi NNW 3.5 mph - N/A   Clear
10:15 PM 19.4 °F - 14.0 °F 80% 30.23 in 10.0 mi Calm Calm - N/A   Clear
10:35 PM 19.4 °F 12.8 °F 12.2 °F 74% 30.23 in 10.0 mi East 4.6 mph - N/A   Clear
10:55 PM 19.4 °F - 12.2 °F 74% 30.23 in 10.0 mi Calm Calm - N/A   Clear
11:15 PM 19.4 °F - 12.2 °F 74% 30.23 in 10.0 mi Calm Calm - N/A   Clear
11:35 PM 19.4 °F - 12.2 °F 74% 30.22 in 10.0 mi Calm Calm - N/A   Clear
11:55 PM 15.8 °F - 10.4 °F 79% 30.22 in 10.0 mi Calm Calm - N/A   Clear